Andrews, TX

6:37 PM CST on December 15, 2019 (GMT -0600)
Andrews

Weather History for KE11 - October, 2019

Change the Weather History Date:

Tuesday, October 1, 2019

  Actual Average (WUND) Record (WUND)
Temperature  
Mean Temperature 80 °F -  
Max Temperature 87 °F - - (-1)
Min Temperature 73 °F - - (-1)
Cooling Degree Days 15    
Growing Degree Days 30 (Base 50)    
Moisture  
Dew Point 65 °F    
Average Humidity 64    
Maximum Humidity 80    
Minimum Humidity 47    
Precipitation  
Precipitation 0.00 in - - ()
Sea Level Pressure  
Sea Level Pressure 29.94 in    
Wind  
Wind Speed 13 mph ()    
Max Wind Speed 23 mph    
Max Gust Speed 31 mph    
Visibility 10.0 miles    
Events Thunderstorm    
Averages and records for this station are not official NWS values.
T = Trace of Precipitation, MM = Missing Value Source: Averaged Metar Reports

Daily Weather History Graph

Daily Weather History Graph

Search for Another Location

Airport or City:

Astronomy

Oct. 01, 2019 Rise Set
Actual Time 7:44 AM CDT 7:35 PM CDT
Civil Twilight 7:19 AM CDT 7:59 PM CDT
Nautical Twilight 6:51 AM CDT 8:27 PM CDT
Astronomical Twilight 6:22 AM CDT 8:56 PM CDT
Moon 10:52 AM CDT (10/1) 10:01 PM CDT (10/1)
Length of Visible Light 12h 40m
Length of Day
11h 51m
Waxing Crescent, 12% of the Moon is Illuminated
Oct 1
Waxing Crescent
Oct 5
First Quarter
Oct 13
Full
Oct 21
Last Quarter
Oct 27
New

Hourly Weather History & Observations

Time (CDT) Temp. Heat Index Dew Point Humidity Pressure Visibility Wind Dir Wind Speed Gust Speed Precip Events Conditions
12:15 AM 74.7 °F - 64.8 °F 71% 29.95 in 10.0 mi SSE 9.2 mph - N/A   Clear
12:35 AM 74.7 °F - 65.3 °F 73% 29.95 in 10.0 mi SSE 10.4 mph 17.3 mph N/A   Clear
12:55 AM 74.5 °F - 65.5 °F 73% 29.94 in 10.0 mi SSE 11.5 mph 18.4 mph N/A   Clear
1:15 AM 74.5 °F - 65.5 °F 73% 29.94 in 10.0 mi South 11.5 mph 18.4 mph N/A   Clear
1:35 AM 74.1 °F - 65.3 °F 74% 29.94 in 10.0 mi SSE 10.4 mph 18.4 mph N/A   Clear
1:55 AM 73.9 °F - 65.3 °F 74% 29.94 in 10.0 mi SSE 9.2 mph 17.3 mph N/A   Clear
2:15 AM 73.8 °F - 65.3 °F 75% 29.94 in 10.0 mi SSE 13.8 mph 19.6 mph N/A   Clear
2:35 AM 73.6 °F - 65.3 °F 75% 29.94 in 10.0 mi South 15.0 mph 19.6 mph N/A   Clear
2:55 AM 74.5 °F - 65.3 °F 73% 29.94 in 10.0 mi South 16.1 mph 21.9 mph N/A   Mostly Cloudy
3:15 AM 74.7 °F - 65.3 °F 73% 29.94 in 10.0 mi SSE 15.0 mph 23.0 mph N/A   Overcast
3:35 AM 74.5 °F - 65.3 °F 73% 29.94 in 10.0 mi SSE 16.1 mph 21.9 mph N/A   Overcast
3:55 AM 73.9 °F - 65.3 °F 74% 29.94 in 10.0 mi SSE 12.7 mph 21.9 mph N/A   Overcast
4:15 AM 73.6 °F - 65.3 °F 75% 29.93 in 10.0 mi SSE 11.5 mph 18.4 mph N/A   Overcast
4:35 AM 73.6 °F - 65.5 °F 76% 29.93 in 10.0 mi SSE 12.7 mph 16.1 mph N/A   Mostly Cloudy
4:55 AM 73.4 °F - 65.3 °F 76% 29.93 in 10.0 mi SSE 12.7 mph 20.7 mph N/A   Mostly Cloudy
5:15 AM 73.9 °F - 65.5 °F 75% 29.93 in 10.0 mi South 13.8 mph 20.7 mph N/A   Overcast
5:35 AM 73.9 °F - 65.5 °F 75% 29.94 in 10.0 mi South 15.0 mph 25.3 mph N/A   Overcast
5:55 AM 73.6 °F - 65.8 °F 77% 29.94 in 10.0 mi South 16.1 mph 28.8 mph N/A   Mostly Cloudy
6:15 AM 73.4 °F - 66.2 °F 78% 29.95 in 10.0 mi SSE 15.0 mph 20.7 mph N/A   Overcast
6:35 AM 73.4 °F - 66.4 °F 79% 29.94 in 10.0 mi SSE 17.3 mph 23.0 mph N/A   Overcast
6:55 AM 73.4 °F - 66.4 °F 79% 29.95 in 10.0 mi South 12.7 mph - N/A   Overcast
7:15 AM 73.4 °F - 66.6 °F 79% 29.96 in 10.0 mi South 13.8 mph 21.9 mph N/A   Overcast
7:35 AM 73.4 °F - 66.6 °F 79% 29.96 in 10.0 mi South 16.1 mph 21.9 mph N/A   Overcast
7:55 AM 73.4 °F - 66.7 °F 80% 29.96 in 10.0 mi South 12.7 mph 21.9 mph N/A   Overcast
8:15 AM 73.4 °F - 66.7 °F 80% 29.96 in 10.0 mi South 12.7 mph 18.4 mph N/A   Overcast
8:35 AM 73.4 °F - 66.7 °F 80% 29.97 in 10.0 mi South 15.0 mph 24.2 mph N/A   Overcast
8:55 AM 73.8 °F - 65.8 °F 76% 29.97 in 10.0 mi South 18.4 mph 24.2 mph N/A   Overcast
9:15 AM 74.5 °F - 65.8 °F 74% 29.97 in 10.0 mi South 20.7 mph 29.9 mph N/A   Overcast
9:35 AM 75.2 °F - 66.2 °F 73% 29.97 in 10.0 mi South 12.7 mph 20.7 mph N/A   Overcast
9:55 AM 76.3 °F - 66.0 °F 70% 29.98 in 10.0 mi South 18.4 mph 31.1 mph N/A   Overcast
10:15 AM 77.2 °F - 66.2 °F 69% 29.98 in 10.0 mi South 18.4 mph 31.1 mph N/A   Overcast
10:35 AM 77.0 °F - 66.0 °F 69% 29.99 in 10.0 mi South 19.6 mph 29.9 mph N/A   Overcast
10:55 AM 77.4 °F - 65.7 °F 67% 29.99 in 10.0 mi South 19.6 mph 31.1 mph N/A   Overcast
11:15 AM 77.9 °F - 65.5 °F 65% 29.99 in 10.0 mi South 19.6 mph 28.8 mph N/A   Overcast
11:35 AM 79.9 °F - 65.8 °F 62% 29.99 in 10.0 mi South 20.7 mph 29.9 mph N/A   Overcast
11:55 AM 80.8 °F 82.9 °F 66.2 °F 61% 29.99 in 10.0 mi South 19.6 mph 28.8 mph N/A   Mostly Cloudy
12:15 PM 81.1 °F 83.2 °F 66.0 °F 60% 29.99 in 10.0 mi South 20.7 mph 28.8 mph N/A   Mostly Cloudy
12:35 PM 82.4 °F 84.4 °F 66.0 °F 57% 29.99 in 10.0 mi SSW 17.3 mph 29.9 mph N/A   Mostly Cloudy
12:55 PM 82.9 °F 85.2 °F 66.2 °F 57% 29.98 in 10.0 mi South 17.3 mph 27.6 mph N/A   Mostly Cloudy
1:15 PM 83.7 °F 85.5 °F 65.7 °F 54% 29.98 in 10.0 mi South 23.0 mph 29.9 mph N/A   Mostly Cloudy
1:35 PM 84.9 °F 87.1 °F 66.0 °F 53% 29.97 in 10.0 mi SSW 18.4 mph 27.6 mph N/A   Overcast
1:55 PM 83.8 °F 86.0 °F 65.8 °F 55% 29.96 in 10.0 mi South 20.7 mph 27.6 mph N/A   Overcast
2:15 PM 85.5 °F 87.9 °F 66.4 °F 53% 29.96 in 10.0 mi South 17.3 mph 31.1 mph N/A   Overcast
2:35 PM 84.6 °F 86.6 °F 65.7 °F 53% 29.95 in 10.0 mi South 15.0 mph 26.5 mph N/A   Overcast
2:55 PM 86.4 °F 88.4 °F 65.8 °F 50% 29.94 in 10.0 mi South 18.4 mph 31.1 mph N/A   Mostly Cloudy
3:15 PM 84.7 °F 86.6 °F 65.3 °F 52% 29.93 in 10.0 mi SSW 15.0 mph 25.3 mph N/A   Mostly Cloudy
3:35 PM 86.5 °F 88.4 °F 65.3 °F 49% 29.92 in 10.0 mi South 15.0 mph 25.3 mph N/A   Scattered Clouds
3:55 PM 85.8 °F 87.6 °F 65.1 °F 50% 29.91 in 10.0 mi South 17.3 mph 28.8 mph N/A   Scattered Clouds
4:15 PM 87.6 °F 89.4 °F 64.9 °F 47% 29.91 in 10.0 mi South 12.7 mph 23.0 mph N/A   Mostly Cloudy
4:35 PM 86.5 °F 88.1 °F 64.6 °F 48% 29.91 in 10.0 mi South 12.7 mph 21.9 mph N/A   Scattered Clouds
4:55 PM 86.2 °F 87.6 °F 64.6 °F 48% 29.90 in 10.0 mi South 12.7 mph 17.3 mph N/A   Mostly Cloudy
5:15 PM 87.8 °F 89.7 °F 65.1 °F 47% 29.90 in 10.0 mi South 12.7 mph 20.7 mph N/A   Mostly Cloudy
5:35 PM 87.8 °F 89.7 °F 65.3 °F 47% 29.90 in 10.0 mi South 15.0 mph 19.6 mph N/A   Overcast
5:55 PM 86.7 °F 88.4 °F 64.9 °F 48% 29.89 in 10.0 mi SSE 15.0 mph 20.7 mph N/A   Mostly Cloudy
6:15 PM 86.9 °F 88.3 °F 64.4 °F 47% 29.89 in 10.0 mi South 12.7 mph 20.7 mph N/A   Scattered Clouds
6:35 PM 86.0 °F 87.6 °F 64.9 °F 49% 29.89 in 10.0 mi SSE 15.0 mph 21.9 mph N/A   Clear
6:55 PM 84.2 °F 85.6 °F 64.4 °F 51% 29.89 in 10.0 mi SSE 11.5 mph 21.9 mph N/A   Clear
7:15 PM 83.3 °F 84.8 °F 64.6 °F 53% 29.89 in 10.0 mi SSE 15.0 mph 18.4 mph N/A   Clear
7:35 PM 82.4 °F 84.1 °F 64.6 °F 55% 29.89 in 10.0 mi SSE 13.8 mph 23.0 mph N/A Thunderstorm Clear
7:55 PM 81.7 °F 83.3 °F 64.4 °F 56% 29.89 in 10.0 mi SSE 13.8 mph 19.6 mph N/A Thunderstorm Clear
8:15 PM 81.0 °F 82.6 °F 64.4 °F 57% 29.90 in 10.0 mi SSE 9.2 mph 17.3 mph N/A Thunderstorm Clear
8:35 PM 80.2 °F 81.9 °F 64.0 °F 58% 29.90 in 10.0 mi SSE 12.7 mph 18.4 mph N/A Thunderstorm Scattered Clouds
8:55 PM 79.7 °F - 64.0 °F 59% 29.91 in 10.0 mi SSE 11.5 mph - N/A Thunderstorm Scattered Clouds
9:15 PM 79.0 °F - 64.0 °F 60% 29.92 in 10.0 mi SSE 9.2 mph - N/A Thunderstorm Clear
9:35 PM 78.3 °F - 64.0 °F 61% 29.92 in 10.0 mi SSE 10.4 mph - N/A   Clear
9:55 PM 77.5 °F - 63.7 °F 62% 29.93 in 10.0 mi SSE 8.1 mph - N/A Thunderstorm Clear
10:15 PM 77.4 °F - 63.5 °F 62% 29.94 in 10.0 mi South 10.4 mph - N/A Thunderstorm Clear
10:35 PM 77.4 °F - 63.0 °F 61% 29.94 in 10.0 mi South 9.2 mph - N/A Thunderstorm Clear
10:55 PM 76.1 °F - 63.0 °F 64% 29.94 in 10.0 mi SSE 8.1 mph - N/A   Clear
11:15 PM 73.8 °F - 63.5 °F 70% 29.94 in 10.0 mi SE 6.9 mph - N/A   Clear
11:35 PM 74.3 °F - 63.0 °F 68% 29.94 in 10.0 mi SSE 8.1 mph - N/A   Clear
11:55 PM 74.3 °F - 63.0 °F 68% 29.96 in 10.0 mi South 9.2 mph - N/A   Clear